Year,Month,Day,Hour,Minute,Value (Times are PST for temperature in C)
2008,06,21,00,00,15.30
2008,06,21,00,01,15.30
2008,06,21,00,02,15.30
2008,06,21,00,03,15.30
2008,06,21,00,04,15.30
2008,06,21,00,05,15.30
2008,06,21,00,06,15.30
2008,06,21,00,07,15.30
2008,06,21,00,08,15.30
2008,06,21,00,09,15.30
2008,06,21,00,10,15.30
2008,06,21,00,11,15.30
2008,06,21,00,12,15.30
2008,06,21,01,02,15.20
2008,06,21,01,03,15.20
2008,06,21,01,04,15.20
2008,06,21,01,05,15.20
2008,06,21,01,06,15.20
2008,06,21,01,07,15.20
2008,06,21,01,08,15.20
2008,06,21,01,09,15.20
2008,06,21,01,10,15.20
2008,06,21,01,11,15.20
2008,06,21,01,12,15.20
2008,06,21,01,13,15.20
2008,06,21,01,14,15.10
2008,06,21,01,15,15.10
2008,06,21,01,16,15.10
2008,06,21,01,17,15.10
2008,06,21,01,18,15.10
2008,06,21,01,19,15.10
2008,06,21,01,20,15.10
2008,06,21,01,21,15.10
2008,06,21,01,22,15.10
2008,06,21,01,23,15.10
2008,06,21,01,24,15.10
2008,06,21,01,25,15.00
2008,06,21,01,26,15.00
2008,06,21,01,27,15.00
2008,06,21,01,28,15.00
2008,06,21,01,29,15.00
2008,06,21,01,30,15.00
2008,06,21,01,31,14.90
2008,06,21,01,32,14.90
2008,06,21,01,33,14.90
2008,06,21,01,34,14.90
2008,06,21,01,35,14.90
2008,06,21,01,36,14.90
2008,06,21,01,37,14.80
2008,06,21,01,38,14.80
2008,06,21,01,39,14.80
2008,06,21,01,40,14.80
2008,06,21,01,41,14.80
2008,06,21,01,42,14.80
2008,06,21,01,43,14.80
2008,06,21,01,44,14.80
2008,06,21,01,45,14.80
2008,06,21,01,46,14.80
2008,06,21,01,47,14.80
2008,06,21,01,48,14.80
2008,06,21,01,49,14.80
2008,06,21,01,50,14.80
2008,06,21,01,51,14.80
2008,06,21,01,52,14.80
2008,06,21,01,53,14.80
2008,06,21,01,54,14.80
2008,06,21,01,55,14.80
2008,06,21,01,56,14.80
2008,06,21,01,57,14.80
2008,06,21,01,58,14.70
2008,06,21,01,59,14.70
2008,06,21,02,00,14.70
2008,06,21,02,01,14.70
2008,06,21,02,02,14.70
2008,06,21,02,03,14.70
2008,06,21,02,04,14.70
2008,06,21,02,05,14.70
2008,06,21,02,06,14.70
2008,06,21,02,07,14.70
2008,06,21,02,08,14.60
2008,06,21,02,09,14.60
2008,06,21,02,10,14.60
2008,06,21,02,11,14.60
2008,06,21,02,12,14.60
2008,06,21,02,13,14.60
2008,06,21,02,14,14.60
2008,06,21,02,15,14.60
2008,06,21,02,16,14.60
2008,06,21,02,17,14.60
2008,06,21,02,18,14.60
2008,06,21,02,19,14.60
2008,06,21,02,20,14.60
2008,06,21,02,21,14.60
2008,06,21,02,22,14.60
2008,06,21,02,23,14.60
2008,06,21,02,24,14.60
2008,06,21,02,25,14.60
2008,06,21,02,26,14.60
2008,06,21,02,27,14.50
2008,06,21,02,28,14.50
2008,06,21,02,29,14.50
2008,06,21,02,30,14.50
2008,06,21,02,31,14.50
2008,06,21,02,32,14.50
2008,06,21,02,33,14.50
2008,06,21,02,34,14.40
2008,06,21,02,35,14.40
2008,06,21,02,36,14.40
2008,06,21,02,37,14.40
2008,06,21,02,38,14.40
2008,06,21,02,39,14.40
2008,06,21,02,40,14.30
2008,06,21,02,41,14.30
2008,06,21,02,42,14.30
2008,06,21,02,43,14.30
2008,06,21,02,44,14.30
2008,06,21,02,45,14.30
2008,06,21,02,46,14.20
2008,06,21,02,47,14.20
2008,06,21,02,48,14.20
2008,06,21,02,49,14.20
2008,06,21,02,50,14.20
2008,06,21,02,51,14.20
2008,06,21,02,52,14.20
2008,06,21,02,53,14.20
2008,06,21,02,54,14.20
2008,06,21,02,55,14.20
2008,06,21,02,56,14.20
2008,06,21,02,57,14.10
2008,06,21,02,58,14.10
2008,06,21,02,59,14.10
2008,06,21,03,00,14.10
2008,06,21,03,01,14.10
2008,06,21,03,02,14.00
2008,06,21,03,03,14.00
2008,06,21,03,04,14.00
2008,06,21,03,05,14.00
2008,06,21,03,06,14.00
2008,06,21,03,07,14.00
2008,06,21,03,08,13.90
2008,06,21,03,09,13.90
2008,06,21,03,10,13.90
2008,06,21,03,11,13.90
2008,06,21,03,12,13.90
2008,06,21,03,13,13.90
2008,06,21,03,14,13.90
2008,06,21,03,15,13.90
2008,06,21,03,16,13.80
2008,06,21,03,17,13.80
2008,06,21,03,18,13.80
2008,06,21,03,19,13.80
2008,06,21,03,20,13.80
2008,06,21,03,21,13.80
2008,06,21,03,22,13.80
2008,06,21,03,23,13.70
2008,06,21,03,24,13.70
2008,06,21,03,25,13.70
2008,06,21,03,26,13.70
2008,06,21,03,27,13.70
2008,06,21,03,28,13.70
2008,06,21,03,29,13.70
2008,06,21,03,30,13.70
2008,06,21,03,31,13.70
2008,06,21,03,32,13.70
2008,06,21,03,33,13.70
2008,06,21,03,34,13.70
2008,06,21,03,35,13.60
2008,06,21,03,36,13.60
2008,06,21,03,37,13.60
2008,06,21,03,38,13.60
2008,06,21,03,39,13.60
2008,06,21,03,40,13.60
2008,06,21,03,41,13.50
2008,06,21,03,42,13.50
2008,06,21,03,43,13.50
2008,06,21,03,44,13.50
2008,06,21,03,45,13.50
2008,06,21,03,46,13.40
2008,06,21,03,47,13.40
2008,06,21,03,48,13.40
2008,06,21,03,49,13.40
2008,06,21,03,50,13.40
2008,06,21,03,51,13.30
2008,06,21,03,52,13.30
2008,06,21,03,53,13.30
2008,06,21,03,54,13.30
2008,06,21,03,55,13.30
2008,06,21,03,56,13.30
2008,06,21,03,57,13.30
2008,06,21,03,58,13.30
2008,06,21,03,59,13.30
2008,06,21,04,00,13.30
2008,06,21,04,01,13.30
2008,06,21,04,02,13.30
2008,06,21,04,03,13.30
2008,06,21,04,04,13.30
2008,06,21,04,05,13.30
2008,06,21,04,06,13.20
2008,06,21,04,07,13.20
2008,06,21,04,08,13.20
2008,06,21,04,09,13.20
2008,06,21,04,10,13.20
2008,06,21,04,11,13.20
2008,06,21,04,12,13.20
2008,06,21,04,13,13.20
2008,06,21,04,14,13.10
2008,06,21,04,15,13.10
2008,06,21,04,16,13.10
2008,06,21,04,17,13.10
2008,06,21,04,18,13.10
2008,06,21,04,19,13.10
2008,06,21,04,20,13.00
2008,06,21,04,21,13.00
2008,06,21,04,22,13.00
2008,06,21,04,23,13.00
2008,06,21,04,24,12.90
2008,06,21,04,25,12.90
2008,06,21,04,26,12.90
2008,06,21,04,27,12.90
2008,06,21,04,28,12.80
2008,06,21,04,29,12.80
2008,06,21,04,30,12.80
2008,06,21,04,31,12.80
2008,06,21,04,32,12.80
2008,06,21,04,33,12.80
2008,06,21,04,34,12.80
2008,06,21,04,35,12.80
2008,06,21,04,36,12.70
2008,06,21,04,37,12.70
2008,06,21,04,38,12.70
2008,06,21,04,39,12.60
2008,06,21,04,40,12.60
2008,06,21,04,41,12.60
2008,06,21,04,42,12.60
2008,06,21,04,43,12.60
2008,06,21,04,44,12.60
2008,06,21,04,45,12.60
2008,06,21,04,46,12.60
2008,06,21,04,47,12.50
2008,06,21,04,48,12.50
2008,06,21,04,49,12.50
2008,06,21,04,50,12.50
2008,06,21,04,51,12.50
2008,06,21,04,52,12.40
2008,06,21,04,53,12.40
2008,06,21,04,54,12.40
2008,06,21,04,55,12.40
2008,06,21,04,56,12.30
2008,06,21,04,57,12.30
2008,06,21,04,58,12.30
2008,06,21,04,59,12.30
2008,06,21,05,00,12.30
2008,06,21,05,01,12.30
2008,06,21,05,02,12.30
2008,06,21,05,03,12.30
2008,06,21,05,04,12.30
2008,06,21,05,05,12.30
2008,06,21,05,06,12.30
2008,06,21,05,07,12.30
2008,06,21,05,08,12.20
2008,06,21,05,09,12.20
2008,06,21,05,10,12.20
2008,06,21,05,11,12.20
2008,06,21,05,12,12.20
2008,06,21,05,13,12.20
2008,06,21,05,14,12.20
2008,06,21,05,15,12.20
2008,06,21,05,16,12.20
2008,06,21,05,17,12.20
2008,06,21,05,18,12.10
2008,06,21,05,19,12.10
2008,06,21,05,20,12.10
2008,06,21,05,21,12.10
2008,06,21,05,22,12.10
2008,06,21,05,23,12.10
2008,06,21,05,24,12.10
2008,06,21,05,25,12.10
2008,06,21,05,26,12.10
2008,06,21,05,27,12.10
2008,06,21,05,28,12.10
2008,06,21,05,29,12.10
2008,06,21,05,30,12.10
2008,06,21,05,31,12.10
2008,06,21,05,32,12.10
2008,06,21,05,33,12.10
2008,06,21,05,34,12.10
2008,06,21,05,35,12.10
2008,06,21,05,36,12.10
2008,06,21,05,37,12.10
2008,06,21,05,38,12.10
2008,06,21,05,39,12.10
2008,06,21,05,40,12.10
2008,06,21,05,41,12.20
2008,06,21,05,42,12.20
2008,06,21,05,43,12.20
2008,06,21,05,44,12.20
2008,06,21,05,45,12.20
2008,06,21,05,46,12.20
2008,06,21,05,47,12.20
2008,06,21,05,48,12.20
2008,06,21,05,49,12.20
2008,06,21,05,50,12.20
2008,06,21,05,51,12.20
2008,06,21,05,52,12.20
2008,06,21,05,53,12.20
2008,06,21,05,54,12.20
2008,06,21,05,55,12.20
2008,06,21,05,56,12.20
2008,06,21,05,57,12.20
2008,06,21,05,58,12.20
2008,06,21,05,59,12.20
2008,06,21,06,00,12.20
2008,06,21,06,01,12.20
2008,06,21,06,02,12.20
2008,06,21,06,03,12.20
2008,06,21,06,04,12.20
2008,06,21,06,05,12.20
2008,06,21,06,06,12.20
2008,06,21,06,07,12.20
2008,06,21,06,08,12.20
2008,06,21,06,09,12.30
2008,06,21,06,10,12.30
2008,06,21,06,11,12.30
2008,06,21,06,12,12.30
2008,06,21,06,13,12.30
2008,06,21,06,14,12.30
2008,06,21,06,15,12.30
2008,06,21,06,16,12.30
2008,06,21,06,17,12.30
2008,06,21,06,18,12.30
2008,06,21,06,19,12.30
2008,06,21,06,20,12.30
2008,06,21,06,21,12.30
2008,06,21,06,22,12.30
2008,06,21,06,23,12.30
2008,06,21,06,24,12.40
2008,06,21,06,25,12.40
2008,06,21,06,26,12.40
2008,06,21,06,27,12.40
2008,06,21,06,28,12.40
2008,06,21,06,29,12.40
2008,06,21,06,30,12.50
2008,06,21,06,31,12.50
2008,06,21,06,32,12.50
2008,06,21,06,33,12.60
2008,06,21,06,34,12.60
2008,06,21,06,35,12.60
2008,06,21,06,36,12.60
2008,06,21,06,37,12.60
2008,06,21,06,38,12.70
2008,06,21,06,39,12.70
2008,06,21,06,40,12.70
2008,06,21,06,41,12.70
2008,06,21,06,42,12.80
2008,06,21,06,43,12.80
2008,06,21,06,44,12.80
2008,06,21,06,45,12.80
2008,06,21,06,46,12.80
2008,06,21,06,47,12.80
2008,06,21,06,48,12.80
2008,06,21,06,49,12.90
2008,06,21,06,50,12.90
2008,06,21,06,51,12.90
2008,06,21,06,52,12.90
2008,06,21,06,53,13.00
2008,06,21,06,54,13.00
2008,06,21,06,55,13.00
2008,06,21,06,56,13.00
2008,06,21,06,57,13.10
2008,06,21,06,58,13.10
2008,06,21,06,59,13.10
2008,06,21,07,00,13.20
2008,06,21,07,01,13.20
2008,06,21,07,02,13.20
2008,06,21,07,03,13.20
2008,06,21,07,04,13.20
2008,06,21,07,05,13.30
2008,06,21,07,06,13.30
2008,06,21,07,07,13.30
2008,06,21,07,08,13.30
2008,06,21,07,09,13.30
2008,06,21,07,10,13.30
2008,06,21,07,11,13.40
2008,06,21,07,12,13.40
2008,06,21,07,13,13.50
2008,06,21,07,14,13.50
2008,06,21,07,15,13.50
2008,06,21,07,16,13.60
2008,06,21,07,17,13.60
2008,06,21,07,18,13.60
2008,06,21,07,19,13.70
2008,06,21,07,20,13.70
2008,06,21,07,21,13.70
2008,06,21,07,22,13.70
2008,06,21,07,23,13.70
2008,06,21,07,24,13.80
2008,06,21,07,25,13.80
2008,06,21,07,26,13.80
2008,06,21,07,27,13.90
2008,06,21,07,28,13.90
2008,06,21,07,29,13.90
2008,06,21,07,30,14.00
2008,06,21,07,31,14.00
2008,06,21,07,32,14.00
2008,06,21,07,33,14.00
2008,06,21,07,34,14.10
2008,06,21,07,35,14.10
2008,06,21,07,36,14.10
2008,06,21,07,37,14.20
2008,06,21,07,38,14.20
2008,06,21,07,39,14.20
2008,06,21,07,40,14.20
2008,06,21,07,41,14.20
2008,06,21,07,42,14.20
2008,06,21,07,43,14.30
2008,06,21,07,44,14.30
2008,06,21,07,45,14.30
2008,06,21,07,46,14.30
2008,06,21,07,47,14.40
2008,06,21,07,48,14.40
2008,06,21,07,49,14.50
2008,06,21,07,50,14.50
2008,06,21,07,51,14.50
2008,06,21,07,52,14.60
2008,06,21,07,53,14.60
2008,06,21,07,54,14.70
2008,06,21,07,55,14.70
2008,06,21,07,56,14.80
2008,06,21,07,57,14.80
2008,06,21,07,58,14.80
2008,06,21,07,59,14.80
2008,06,21,08,00,14.80
2008,06,21,08,01,14.90
2008,06,21,08,02,14.90
2008,06,21,08,03,15.00
2008,06,21,08,04,15.00
2008,06,21,08,05,15.00
2008,06,21,08,06,15.10
2008,06,21,08,07,15.10
2008,06,21,08,08,15.10
2008,06,21,08,09,15.20
2008,06,21,08,10,15.20
2008,06,21,08,11,15.20
2008,06,21,08,12,15.30
2008,06,21,08,13,15.30
2008,06,21,08,14,15.30
2008,06,21,08,15,15.30
2008,06,21,08,16,15.30
2008,06,21,08,17,15.30
2008,06,21,08,18,15.30
2008,06,21,08,19,15.30
2008,06,21,08,20,15.40
2008,06,21,08,21,15.40
2008,06,21,08,22,15.40
2008,06,21,08,23,15.40
2008,06,21,08,24,15.40
2008,06,21,08,25,15.40
2008,06,21,08,26,15.40
2008,06,21,08,27,15.40
2008,06,21,08,28,15.40
2008,06,21,08,29,15.40
2008,06,21,08,30,15.40
2008,06,21,08,31,15.40
2008,06,21,08,32,15.40
2008,06,21,08,33,15.40
2008,06,21,08,34,15.40
2008,06,21,08,35,15.40
2008,06,21,08,36,15.40
2008,06,21,08,37,15.40
2008,06,21,08,38,15.40
2008,06,21,08,39,15.40
2008,06,21,08,40,15.40
2008,06,21,08,41,15.40
2008,06,21,08,42,15.40
2008,06,21,08,43,15.40
2008,06,21,08,44,15.40
2008,06,21,08,45,15.40
2008,06,21,08,46,15.40
2008,06,21,08,47,15.40
2008,06,21,08,48,15.50
2008,06,21,08,49,15.50
2008,06,21,08,50,15.50
2008,06,21,08,51,15.50
2008,06,21,08,52,15.50
2008,06,21,08,53,15.60
2008,06,21,08,54,15.60
2008,06,21,08,55,15.60
2008,06,21,08,56,15.60
2008,06,21,08,57,15.70
2008,06,21,08,58,15.70
2008,06,21,08,59,15.70
2008,06,21,09,00,15.70
2008,06,21,09,01,15.80
2008,06,21,09,02,15.80
2008,06,21,09,03,15.80
2008,06,21,09,04,15.80
2008,06,21,09,05,15.80
2008,06,21,09,06,15.80
2008,06,21,09,07,15.80
2008,06,21,09,08,15.80
2008,06,21,09,09,15.80
2008,06,21,09,10,15.90
2008,06,21,09,11,15.90
2008,06,21,09,12,15.90
2008,06,21,09,13,15.90
2008,06,21,09,14,15.90
2008,06,21,09,15,16.00
2008,06,21,09,16,16.10
2008,06,21,09,17,16.10
2008,06,21,09,18,16.10
2008,06,21,09,19,16.10
2008,06,21,09,20,16.10
2008,06,21,09,21,16.10
2008,06,21,09,22,16.10
2008,06,21,09,23,16.10
2008,06,21,09,24,16.10
2008,06,21,09,25,16.10
2008,06,21,09,26,16.10
2008,06,21,09,27,16.10
2008,06,21,09,28,16.10
2008,06,21,09,29,16.10
2008,06,21,09,30,16.10
2008,06,21,09,31,16.10
2008,06,21,09,32,16.20
2008,06,21,09,33,16.20
2008,06,21,09,34,16.20
2008,06,21,09,35,16.30
2008,06,21,09,36,16.30
2008,06,21,09,37,16.30
2008,06,21,09,38,16.30
2008,06,21,09,39,16.30
2008,06,21,09,40,16.30
2008,06,21,09,41,16.30
2008,06,21,09,42,16.30
2008,06,21,09,43,16.30
2008,06,21,09,44,16.30
2008,06,21,09,45,16.30
2008,06,21,09,46,16.40
2008,06,21,09,47,16.40
2008,06,21,09,48,16.30
2008,06,21,09,49,16.30
2008,06,21,09,50,16.30
2008,06,21,09,51,16.20
2008,06,21,09,52,16.20
2008,06,21,09,53,16.10
2008,06,21,09,54,16.10
2008,06,21,09,55,16.10
2008,06,21,09,56,16.10
2008,06,21,09,57,16.10
2008,06,21,09,58,16.20
2008,06,21,09,59,16.20
2008,06,21,10,00,16.30
2008,06,21,10,01,16.30
2008,06,21,10,02,16.30
2008,06,21,10,03,16.40
2008,06,21,10,04,16.40
2008,06,21,10,05,16.40
2008,06,21,10,06,16.40
2008,06,21,10,07,16.40
2008,06,21,10,08,16.40
2008,06,21,10,09,16.30
2008,06,21,10,10,16.30
2008,06,21,10,11,16.30
2008,06,21,10,12,16.30
2008,06,21,10,13,16.30
2008,06,21,10,14,16.30
2008,06,21,10,15,16.40
2008,06,21,10,16,16.40
2008,06,21,10,17,16.40
2008,06,21,10,18,16.40
2008,06,21,10,19,16.40
2008,06,21,10,20,16.50
2008,06,21,10,21,16.60
2008,06,21,10,22,16.60
2008,06,21,10,23,16.70
2008,06,21,10,24,16.70
2008,06,21,10,25,16.70
2008,06,21,10,26,16.70
2008,06,21,10,27,16.70
2008,06,21,10,28,16.70
2008,06,21,10,29,16.80
2008,06,21,10,30,16.80
2008,06,21,10,31,16.80
2008,06,21,10,32,16.80
2008,06,21,10,33,16.90
2008,06,21,10,34,16.90
2008,06,21,10,35,17.00
2008,06,21,10,36,17.00
2008,06,21,10,37,17.20
2008,06,21,10,38,17.30
2008,06,21,10,39,17.30
2008,06,21,10,40,17.40
2008,06,21,10,41,17.50
2008,06,21,10,42,17.50
2008,06,21,10,43,17.40
2008,06,21,10,44,17.40
2008,06,21,10,45,17.30
2008,06,21,10,46,17.30
2008,06,21,10,47,17.30
2008,06,21,10,48,17.30
2008,06,21,10,49,17.30
2008,06,21,10,50,17.40
2008,06,21,10,51,17.40
2008,06,21,10,52,17.40
2008,06,21,10,53,17.50
2008,06,21,10,54,17.50
2008,06,21,10,55,17.50
2008,06,21,10,56,17.50
2008,06,21,10,57,17.50
2008,06,21,10,58,17.50
2008,06,21,10,59,17.50
2008,06,21,11,00,17.50
2008,06,21,11,01,17.50
2008,06,21,11,02,17.60
2008,06,21,11,03,17.70
2008,06,21,11,04,17.70
2008,06,21,11,05,17.70
2008,06,21,11,06,17.70
2008,06,21,11,07,17.80
2008,06,21,11,08,17.90
2008,06,21,11,09,17.90
2008,06,21,11,10,18.10
2008,06,21,11,11,18.10
2008,06,21,11,12,18.30
2008,06,21,11,13,18.40
2008,06,21,11,14,18.50
2008,06,21,11,15,18.50
2008,06,21,11,16,18.50
2008,06,21,11,17,18.40
2008,06,21,11,18,18.40
2008,06,21,11,19,18.30
2008,06,21,11,20,18.30
2008,06,21,11,21,18.30
2008,06,21,11,22,18.30
2008,06,21,11,23,18.40
2008,06,21,11,24,18.40
2008,06,21,11,25,18.50
2008,06,21,11,26,18.50
2008,06,21,11,27,18.60
2008,06,21,11,28,18.50
2008,06,21,11,29,18.50
2008,06,21,11,30,18.50
2008,06,21,11,31,18.50
2008,06,21,11,32,18.50
2008,06,21,11,33,18.50
2008,06,21,11,34,18.60
2008,06,21,11,35,18.50
2008,06,21,11,36,18.50
2008,06,21,11,37,18.40
2008,06,21,11,38,18.40
2008,06,21,11,39,18.40
2008,06,21,11,40,18.30
2008,06,21,11,41,18.20
2008,06,21,11,42,18.20
2008,06,21,11,43,18.10
2008,06,21,11,44,18.10
2008,06,21,11,45,18.10
2008,06,21,11,46,18.00
2008,06,21,11,47,17.90
2008,06,21,11,48,17.90
2008,06,21,11,49,17.90
2008,06,21,11,50,17.90
2008,06,21,11,51,17.80
2008,06,21,11,52,17.90
2008,06,21,11,53,17.90
2008,06,21,11,54,17.90
2008,06,21,11,55,17.80
2008,06,21,11,56,17.90
2008,06,21,11,57,17.80
2008,06,21,11,58,17.90
2008,06,21,11,59,17.80
2008,06,21,12,00,17.80
2008,06,21,12,01,17.90
2008,06,21,12,02,17.80
2008,06,21,12,03,17.80
2008,06,21,12,04,17.70
2008,06,21,12,05,17.70
2008,06,21,12,06,17.70
2008,06,21,12,07,17.70
2008,06,21,12,08,17.70
2008,06,21,12,09,17.80
2008,06,21,12,10,17.80
2008,06,21,12,11,17.90
2008,06,21,12,12,17.90
2008,06,21,12,13,18.00
2008,06,21,12,14,18.10
2008,06,21,12,15,18.20
2008,06,21,12,16,18.30
2008,06,21,12,17,18.30
2008,06,21,12,18,18.40
2008,06,21,12,19,18.40
2008,06,21,12,20,18.50
2008,06,21,12,21,18.50
2008,06,21,12,22,18.60
2008,06,21,12,23,18.70
2008,06,21,12,24,18.80
2008,06,21,12,25,18.90
2008,06,21,12,26,18.90
2008,06,21,12,27,18.90
2008,06,21,12,28,18.90
2008,06,21,12,29,18.90
2008,06,21,12,30,18.90
2008,06,21,12,31,18.90
2008,06,21,12,32,18.90
2008,06,21,12,33,18.90
2008,06,21,12,34,18.90
2008,06,21,12,35,18.90
2008,06,21,12,36,18.90
2008,06,21,12,37,18.90
2008,06,21,12,38,18.90
2008,06,21,12,39,18.90
2008,06,21,12,40,18.90
2008,06,21,12,41,19.00
2008,06,21,12,42,19.00
2008,06,21,12,43,19.10
2008,06,21,12,44,19.10
2008,06,21,12,45,19.20
2008,06,21,12,46,19.20
2008,06,21,12,47,19.30
2008,06,21,12,48,19.30
2008,06,21,12,49,19.40
2008,06,21,12,50,19.40
2008,06,21,12,51,19.50
2008,06,21,12,52,19.40
2008,06,21,12,53,19.40
2008,06,21,12,54,19.40
2008,06,21,12,55,19.40
2008,06,21,12,56,19.50
2008,06,21,12,57,19.50
2008,06,21,12,58,19.50
2008,06,21,12,59,19.50
2008,06,21,13,00,19.40
2008,06,21,13,01,19.30
2008,06,21,13,02,19.10
2008,06,21,13,03,19.00
2008,06,21,13,04,18.90
2008,06,21,13,05,18.80
2008,06,21,13,06,18.80
2008,06,21,13,07,18.80
2008,06,21,13,08,18.90
2008,06,21,13,09,18.90
2008,06,21,13,10,19.00
2008,06,21,13,11,19.10
2008,06,21,13,12,19.20
2008,06,21,13,13,19.30
2008,06,21,13,14,19.30
2008,06,21,13,15,19.30
2008,06,21,13,16,19.20
2008,06,21,13,17,19.20
2008,06,21,13,18,19.10
2008,06,21,13,19,19.10
2008,06,21,13,20,19.10
2008,06,21,13,21,19.10
2008,06,21,13,22,19.10
2008,06,21,13,23,19.10
2008,06,21,13,24,19.10
2008,06,21,13,25,19.10
2008,06,21,13,26,19.20
2008,06,21,13,27,19.30
2008,06,21,13,28,19.40
2008,06,21,13,29,19.50
2008,06,21,13,30,19.60
2008,06,21,13,31,19.60
2008,06,21,13,32,19.50
2008,06,21,13,33,19.40
2008,06,21,13,34,19.40
2008,06,21,13,35,19.30
2008,06,21,13,36,19.40
2008,06,21,13,37,19.40
2008,06,21,13,38,19.60
2008,06,21,13,39,19.70
2008,06,21,13,40,19.70
2008,06,21,13,41,19.80
2008,06,21,13,42,19.90
2008,06,21,13,43,19.90
2008,06,21,13,44,19.90
2008,06,21,13,45,19.90
2008,06,21,13,46,20.00
2008,06,21,13,47,20.00
2008,06,21,13,48,19.90
2008,06,21,13,49,19.70
2008,06,21,13,50,19.70
2008,06,21,13,51,19.60
2008,06,21,13,52,19.60
2008,06,21,13,53,19.60
2008,06,21,13,54,19.60
2008,06,21,13,55,19.60
2008,06,21,13,56,19.70
2008,06,21,13,57,19.70
2008,06,21,13,58,19.70
2008,06,21,13,59,19.60
2008,06,21,14,00,19.60
2008,06,21,14,01,19.70
2008,06,21,14,02,19.70
2008,06,21,14,03,19.70
2008,06,21,14,04,19.80
2008,06,21,14,05,19.90
2008,06,21,14,06,19.90
2008,06,21,14,07,19.90
2008,06,21,14,08,20.00
2008,06,21,14,09,20.10
2008,06,21,14,10,20.10
2008,06,21,14,11,20.10
2008,06,21,14,12,20.00
2008,06,21,14,13,19.90
2008,06,21,14,14,19.90
2008,06,21,14,15,19.90
2008,06,21,14,16,19.80
2008,06,21,14,17,19.70
2008,06,21,14,18,19.60
2008,06,21,14,19,19.60
2008,06,21,14,20,19.60
2008,06,21,14,21,19.60
2008,06,21,14,22,19.70
2008,06,21,14,23,19.70
2008,06,21,14,24,19.80
2008,06,21,14,25,19.90
2008,06,21,14,26,19.90
2008,06,21,14,27,19.90
2008,06,21,14,28,19.90
2008,06,21,14,29,19.90
2008,06,21,14,30,19.70
2008,06,21,14,31,19.50
2008,06,21,14,32,19.50
2008,06,21,14,33,19.40
2008,06,21,14,34,19.40
2008,06,21,14,35,19.40
2008,06,21,14,36,19.40
2008,06,21,14,37,19.40
2008,06,21,14,38,19.40
2008,06,21,14,39,19.50
2008,06,21,14,40,19.50
2008,06,21,14,41,19.50
2008,06,21,14,42,19.50
2008,06,21,14,43,19.50
2008,06,21,14,44,19.60
2008,06,21,14,45,19.60
2008,06,21,14,46,19.70
2008,06,21,14,47,19.60
2008,06,21,14,48,19.60
2008,06,21,14,49,19.60
2008,06,21,14,50,19.70
2008,06,21,14,51,19.80
2008,06,21,14,52,19.90
2008,06,21,14,53,19.90
2008,06,21,14,54,19.90
2008,06,21,14,55,19.90
2008,06,21,14,56,19.70
2008,06,21,14,57,19.70
2008,06,21,14,58,19.60
2008,06,21,14,59,19.60
2008,06,21,15,00,19.60
2008,06,21,15,01,19.50
2008,06,21,15,02,19.40
2008,06,21,15,03,19.40
2008,06,21,15,04,19.40
2008,06,21,15,05,19.40
2008,06,21,15,06,19.30
2008,06,21,15,07,19.30
2008,06,21,15,08,19.40
2008,06,21,15,09,19.50
2008,06,21,15,10,19.60
2008,06,21,15,11,19.60
2008,06,21,15,12,19.60
2008,06,21,15,13,19.60
2008,06,21,15,14,19.60
2008,06,21,15,15,19.60
2008,06,21,15,16,19.60
2008,06,21,15,17,19.70
2008,06,21,15,18,19.70
2008,06,21,15,19,19.70
2008,06,21,15,20,19.60
2008,06,21,15,21,19.60
2008,06,21,15,22,19.50
2008,06,21,15,23,19.40
2008,06,21,15,24,19.40
2008,06,21,15,25,19.40
2008,06,21,15,26,19.30
2008,06,21,15,27,19.30
2008,06,21,15,28,19.40
2008,06,21,15,29,19.40
2008,06,21,15,30,19.30
2008,06,21,15,31,19.20
2008,06,21,15,32,19.20
2008,06,21,15,33,19.30
2008,06,21,15,34,19.40
2008,06,21,15,35,19.50
2008,06,21,15,36,19.50
2008,06,21,15,37,19.50
2008,06,21,15,38,19.50
2008,06,21,15,39,19.50
2008,06,21,15,40,19.40
2008,06,21,15,41,19.40
2008,06,21,15,42,19.40
2008,06,21,15,43,19.40
2008,06,21,15,44,19.40
2008,06,21,15,45,19.30
2008,06,21,15,46,19.20
2008,06,21,15,47,19.30
2008,06,21,15,48,19.20
2008,06,21,15,49,19.30
2008,06,21,15,50,19.30
2008,06,21,15,51,19.30
2008,06,21,15,52,19.30
2008,06,21,15,53,19.30
2008,06,21,15,54,19.30
2008,06,21,15,55,19.30
2008,06,21,15,56,19.40
2008,06,21,15,57,19.40
2008,06,21,15,58,19.40
2008,06,21,15,59,19.40
2008,06,21,16,00,19.40
2008,06,21,16,01,19.50
2008,06,21,16,02,19.50
2008,06,21,16,03,19.50
2008,06,21,16,04,19.50
2008,06,21,16,05,19.60
2008,06,21,16,06,19.70
2008,06,21,16,07,19.80
2008,06,21,16,08,19.90
2008,06,21,16,09,19.90
2008,06,21,16,10,20.00
2008,06,21,16,11,20.10
2008,06,21,16,12,20.20
2008,06,21,16,13,20.20
2008,06,21,16,14,20.20
2008,06,21,16,15,20.20
2008,06,21,16,16,20.20
2008,06,21,16,17,20.20
2008,06,21,16,18,20.20
2008,06,21,16,19,20.20
2008,06,21,16,20,20.10
2008,06,21,16,21,19.90
2008,06,21,16,22,19.90
2008,06,21,16,23,19.90
2008,06,21,16,24,19.80
2008,06,21,16,25,19.80
2008,06,21,16,26,19.70
2008,06,21,16,27,19.70
2008,06,21,16,28,19.60
2008,06,21,16,29,19.50
2008,06,21,16,30,19.40
2008,06,21,16,31,19.30
2008,06,21,16,32,19.30
2008,06,21,16,33,19.30
2008,06,21,16,34,19.20
2008,06,21,16,35,19.20
2008,06,21,16,36,19.20
2008,06,21,16,37,19.20
2008,06,21,16,38,19.20
2008,06,21,16,39,19.20
2008,06,21,16,40,19.20
2008,06,21,16,41,19.20
2008,06,21,16,42,19.20
2008,06,21,16,43,19.20
2008,06,21,16,44,19.10
2008,06,21,16,45,19.10
2008,06,21,16,46,19.10
2008,06,21,16,47,19.10
2008,06,21,16,48,19.10
2008,06,21,16,49,19.10
2008,06,21,16,50,19.20
2008,06,21,16,51,19.20
2008,06,21,16,52,19.10
2008,06,21,16,53,19.10
2008,06,21,16,54,19.10
2008,06,21,16,55,19.10
2008,06,21,16,56,19.10
2008,06,21,16,57,19.10
2008,06,21,16,58,19.10
2008,06,21,16,59,19.10
2008,06,21,17,00,19.10
2008,06,21,17,01,19.10
2008,06,21,17,02,19.10
2008,06,21,17,03,19.20
2008,06,21,17,04,19.20
2008,06,21,17,05,19.20
2008,06,21,17,06,19.30
2008,06,21,17,07,19.40
2008,06,21,17,08,19.40
2008,06,21,17,09,19.50
2008,06,21,17,10,19.50
2008,06,21,17,11,19.60
2008,06,21,17,12,19.60
2008,06,21,17,13,19.60
2008,06,21,17,14,19.60
2008,06,21,17,15,19.70
2008,06,21,17,16,19.70
2008,06,21,17,17,19.70
2008,06,21,17,18,19.70
2008,06,21,17,19,19.60
2008,06,21,17,20,19.50
2008,06,21,17,21,19.40
2008,06,21,17,22,19.40
2008,06,21,17,23,19.30
2008,06,21,17,24,19.20
2008,06,21,17,25,19.20
2008,06,21,17,26,19.10
2008,06,21,17,27,19.10
2008,06,21,17,28,19.20
2008,06,21,17,29,19.20
2008,06,21,17,30,19.30
2008,06,21,17,31,19.40
2008,06,21,17,32,19.40
2008,06,21,17,33,19.50
2008,06,21,17,34,19.60
2008,06,21,17,35,19.70
2008,06,21,17,36,19.80
2008,06,21,17,37,19.90
2008,06,21,17,38,20.00
2008,06,21,17,39,20.20
2008,06,21,17,40,20.20
2008,06,21,17,41,20.20
2008,06,21,17,42,20.30
2008,06,21,17,43,20.30
2008,06,21,17,44,20.40
2008,06,21,17,45,20.50
2008,06,21,17,46,20.50
2008,06,21,17,47,20.50
2008,06,21,17,48,20.50
2008,06,21,17,49,20.50
2008,06,21,17,50,20.50
2008,06,21,17,51,20.50
2008,06,21,17,52,20.50
2008,06,21,17,53,20.50
2008,06,21,17,54,20.50
2008,06,21,17,55,20.50
2008,06,21,17,56,20.50
2008,06,21,17,57,20.40
2008,06,21,17,58,20.30
2008,06,21,17,59,20.20
2008,06,21,18,00,20.20
2008,06,21,18,01,20.10
2008,06,21,18,02,20.10
2008,06,21,18,03,20.00
2008,06,21,18,04,19.90
2008,06,21,18,05,19.90
2008,06,21,18,06,19.90
2008,06,21,18,07,19.90
2008,06,21,18,08,19.90